weather.gov     
National Weather Service

Terminal Aerodrome Forecast
NWS Homepage
This page is being discontinued on March 12, 2014.
The same data is available at this site. Please update your bookmarks.
Thank you, and we apologize for the inconvenience.
Please send an email to SR-SRH.Webmaster@noaa.gov with any concerns.


Current Version
Previous Version:    01  02  03  04  05  06  07  08  09  10  11  12  13  14  15  16  17  18  19  20  21  22  23  24  25  
[Printable]
945
FTUS41 KBOX 281125
TAFHYA
TAF
KHYA 281125Z 2812/2912 35009KT P6SM SCT100
     FM281500 36012KT P6SM FEW250
     FM282000 35008KT P6SM FEW250
     FM290000 31004KT P6SM FEW060
     FM290300 33008KT P6SM FEW250=




945
FTUS41 KBOX 281125
TAFHYA
TAF
KHYA 281125Z 2812/2912 35009KT P6SM SCT100
     FM281500 36012KT P6SM FEW250
     FM282000 35008KT P6SM FEW250
     FM290000 31004KT P6SM FEW060
     FM290300 33008KT P6SM FEW250=


U.S. Dept. of Commerce
NOAA National Weather Service
1325 East West Highway
Silver Spring, MD 20910
E-mail: w-nws.webmaster@noaa.gov
Page last modified: May 16, 2007
NATIONAL WEATHER SERVICE: for Safety, for Work, for Fun - FOR LIFE